カタログに戻る

DELTA 1 DEB

運用中SSO
NORAD 7153·DEBRIS·🇺🇸 United States

打ち上げ Nov 6, 1973 から Vandenberg Space Force Base

Loading…

次のパス (今後24時間)

TLE

最新Source: Space-Track

元期: Sep 14, 2026, 09:01 UTC

1 07153U 73086DT  26257.37594733  .00000027  00000-0  56404-3 0  9994
2 07153 102.1646 223.1163 0035797 340.8944 174.4058 12.36038000381755

AllMySatでDELTA 1 DEBをリアルタイム追跡

Download on the App Store